Weather History for Tampa Macdill AFB, FL

Change the Weather History Date:

Thursday, April 3, 2014

  Actual Average Record
Temperature  
Mean Temperature 70 °F -  
Max Temperature 80 °F 78 °F 91 °F (1999)
Min Temperature 59 °F 60 °F 51 °F (2005)
Cooling Degree Days 4    
Growing Degree Days 20 (Base 50)    
Moisture  
Dew Point 64 °F    
Average Humidity 80    
Maximum Humidity 99    
Minimum Humidity 58    
Precipitation  
Precipitation 0.00 in - - ()
Sea Level Pressure  
Sea Level Pressure 30.11 in    
Wind  
Wind Speed 7 mph (South)    
Max Wind Speed 14 mph    
Max Gust Speed -    
Visibility 10 miles    
Events      
Averages and records for this station are not official NWS values.
T = Trace of Precipitation, MM = Missing Value Source: NWS Daily Summary

Daily Weather History Graph

Daily Weather History Graph

Search for Another Location

Airport:

Trip Planner

Search our weather history database for the weather conditions in past years. The results will help you decide how hot, cold, wet, or windy it might be!

Date:

Astronomy

Apr. 03, 2014 Rise Set
Actual Time 7:18 AM EDT 7:48 PM EDT
Civil Twilight 6:54 AM EDT 8:12 PM EDT
Nautical Twilight 6:26 AM EDT 8:40 PM EDT
Astronomical Twilight 5:58 AM EDT 9:08 PM EDT
Moon 10:03 AM EDT (4/3) 11:49 PM EDT (4/3)
Length of Visible Light 13h 17m
Length of Day
12h 30m
Waxing Crescent, 17% of the Moon is Illuminated
Apr 3
Waxing Crescent
Apr 7
First Quarter
Apr 15
Full
Apr 22
Last Quarter
Apr 29
New

Hourly Weather History & Observations

Time (EDT) Temp. Heat Index Dew Point Humidity Pressure Visibility Wind Dir Wind Speed Gust Speed Precip Events Conditions
12:58 AM 59.7 °F - 57.7 °F 93% 30.16 in 10.0 mi ENE 2.3 mph - N/A   Clear
1:58 AM 61.9 °F - 61.5 °F 99% 30.14 in 10.0 mi SE 8.1 mph - N/A   Clear
2:58 AM 64.9 °F - 62.2 °F 91% 30.13 in 10.0 mi SE 8.1 mph - N/A   Clear
3:58 AM 65.3 °F - 63.0 °F 92% 30.11 in 10.0 mi SE 9.2 mph - N/A   Clear
4:58 AM 65.8 °F - 63.0 °F 90% 30.11 in 10.0 mi SSE 9.2 mph - N/A   Clear
5:58 AM 65.5 °F - 62.8 °F 91% 30.11 in 10.0 mi SSE 8.1 mph - N/A   Clear
6:58 AM 65.3 °F - 63.0 °F 92% 30.13 in 10.0 mi SSE 6.9 mph - N/A   Clear
7:58 AM 65.7 °F - 63.1 °F 92% 30.14 in 10.0 mi SSE 4.6 mph - N/A   Clear
8:58 AM 68.2 °F - 63.1 °F 84% 30.16 in 10.0 mi SE 5.8 mph - N/A   Clear
9:58 AM 71.6 °F - 63.5 °F 76% 30.17 in 10.0 mi ESE 8.1 mph - N/A   Clear
10:58 AM 73.6 °F - 64.4 °F 73% 30.17 in 10.0 mi SSE 9.2 mph - N/A   Clear
11:58 AM 77.9 °F - 66.0 °F 67% 30.16 in 10.0 mi South 6.9 mph - N/A   Clear
12:58 PM 80.6 °F 82.3 °F 64.8 °F 58% 30.14 in 10.0 mi SW 8.1 mph - N/A   Clear
1:58 PM 80.8 °F 82.5 °F 64.8 °F 58% 30.13 in 10.0 mi WSW 8.1 mph - N/A   Partly Cloudy
2:58 PM 79.2 °F - 67.3 °F 67% 30.11 in - North - - N/A   Unknown
3:18 PM 78.8 °F - 66.2 °F 65% 30.09 in 10.0 mi WSW 13.8 mph - N/A   Scattered Clouds
3:58 PM 78.3 °F - 66.9 °F 68% 30.10 in - North - - N/A   Unknown
3:59 PM 78.8 °F - 66.2 °F 65% 30.10 in - WSW 13.8 mph - N/A   Scattered Clouds
4:09 PM 77.0 °F - 66.2 °F 69% 30.09 in 10.0 mi WSW 13.8 mph - N/A   Scattered Clouds
4:58 PM 76.5 °F - 65.8 °F 70% 30.07 in 10.0 mi WSW 12.7 mph - N/A   Clear
5:58 PM 74.7 °F - 66.7 °F 76% 30.07 in 10.0 mi SW 10.4 mph - N/A   Clear
6:58 PM 72.9 °F - 67.1 °F 82% 30.07 in 10.0 mi SW 5.8 mph - N/A   Clear
7:58 PM 70.5 °F - 66.2 °F 86% 30.07 in 10.0 mi SW 4.6 mph - N/A   Clear
8:58 PM 68.7 °F - 66.4 °F 92% 30.07 in 10.0 mi SW 2.3 mph - N/A   Clear
9:58 PM 67.6 °F - 65.8 °F 94% 30.09 in 10.0 mi Calm Calm - N/A   Clear
11:58 PM 63.7 °F - 61.9 °F 94% 30.09 in 10.0 mi East 1.2 mph - N/A   Clear